QPF
0.00 0.00 0.00 0.00 0.00 0.00 0.00 0.00 0.00 0.00 0.00 0.00 0.00 0.00 0.01 0.01 0.01 0.01 0.01 0.01 0.01 0.01 0.01 0.01 0.02 0.02 0.02 0.04 0.04 0.03 0.02 0.01 0.02 0.02 0.02 0.02 0.02 0.03 0.02 0.03 0.03 0.03 0.03 0.03
0.00 0.00 0.00 0.00 0.00 0.00 0.00 0.00 0.00 0.00 0.00 0.00 0.00 0.01 0.01 0.01 0.01 0.01 0.01 0.01 0.01 0.01 0.01 0.01 0.02 0.02 0.02 0.05 0.07 0.07 0.05 0.04 0.04 0.02 0.02 0.02 0.02 0.03 0.04 0.02 0.02 0.02 0.02 0.02
0.00 0.00 0.00 0.00 0.00 0.00 0.00 0.00 0.00 0.00 0.00 0.00 0.01 0.02 0.01 0.01 0.01 0.01 0.02 0.02 0.02 0.01 0.01 0.02 0.02 0.03 0.03 0.05 0.12 0.12 0.10 0.08 0.07 0.04 0.03 0.03 0.04 0.05 0.04 0.03 0.02 0.02 0.02 0.02
0.00 0.00 0.00 0.00 0.00 0.00 0.00 0.00 0.00 0.00 0.01 0.00 0.03 0.03 0.01 0.01 0.02 0.03 0.03 0.02 0.02 0.02 0.03 0.03 0.04 0.07 0.08 0.10 0.13 0.14 0.11 0.09 0.07 0.06 0.05 0.05 0.05 0.05 0.04 0.03 0.02 0.02 0.02 0.02
0.00 0.00 0.00 0.00 0.00 0.00 0.00 0.00 0.00 0.00 0.01 0.01 0.03 0.03 0.02 0.02 0.03 0.03 0.04 0.04 0.03 0.03 0.04 0.05 0.05 0.07 0.09 0.10 0.11 0.13 0.13 0.10 0.08 0.07 0.06 0.06 0.06 0.05 0.04 0.03 0.02 0.02 0.01 0.02
0.00 0.00 0.01 0.00 0.00 0.00 0.00 0.00 0.00 0.00 0.00 0.01 0.02 0.02 0.03 0.03 0.03 0.03 0.04 0.04 0.03 0.04 0.04 0.04 0.05 0.06 0.08 0.09 0.12 0.15 0.16 0.14 0.08 0.06 0.06 0.07 0.06 0.05 0.04 0.04 0.03 0.03 0.02 0.03
0.00 0.00 0.00 0.00 0.00 0.00 0.00 0.00 0.00 0.00 0.00 0.01 0.01 0.02 0.03 0.04 0.04 0.04 0.05 0.05 0.06 0.06 0.05 0.04 0.04 0.04 0.06 0.08 0.12 0.16 0.15 0.14 0.10 0.08 0.07 0.09 0.07 0.05 0.04 0.04 0.04 0.04 0.03 0.03
0.00 0.00 0.00 0.00 0.00 0.00 0.01 0.01 0.01 0.00 0.01 0.01 0.01 0.02 0.02 0.03 0.03 0.04 0.06 0.07 0.08 0.07 0.05 0.05 0.05 0.05 0.05 0.07 0.09 0.13 0.14 0.12 0.10 0.09 0.07 0.06 0.06 0.05 0.05 0.04 0.04 0.05 0.06 0.06
0.00 0.00 0.00 0.00 0.00 0.00 0.01 0.01 0.01 0.00 0.01 0.01 0.01 0.01 0.01 0.02 0.03 0.03 0.03 0.02 0.03 0.05 0.04 0.03 0.03 0.03 0.05 0.07 0.10 0.10 0.10 0.09 0.09 0.08 0.06 0.05 0.05 0.06 0.07 0.05 0.04 0.04 0.06 0.08
0.01 0.01 0.01 0.00 0.00 0.01 0.00 0.00 0.01 0.01 0.01 0.01 0.01 0.01 0.01 0.01 0.03 0.03 0.01 0.01 0.01 0.02 0.02 0.03 0.03 0.03 0.04 0.05 0.07 0.09 0.08 0.06 0.06 0.06 0.05 0.04 0.03 0.03 0.04 0.04 0.04 0.05 0.05 0.06
0.01 0.01 0.01 0.01 0.00 0.01 0.00 0.00 0.00 0.01 0.01 0.01 0.01 0.01 0.02 0.02 0.02 0.02 0.01 0.01 0.01 0.02 0.02 0.03 0.03 0.03 0.03 0.05 0.07 0.08 0.07 0.04 0.04 0.04 0.04 0.04 0.04 0.03 0.04 0.05 0.06 0.05 0.05 0.05
0.01 0.01 0.01 0.01 0.01 0.00 0.00 0.00 0.00 0.00 0.01 0.01 0.01 0.01 0.01 0.01 0.01 0.00 0.00 0.00 0.02 0.03 0.03 0.03 0.03 0.03 0.03 0.04 0.05 0.05 0.04 0.03 0.02 0.02 0.04 0.06 0.05 0.04 0.04 0.05 0.06 0.05 0.04 0.03
0.00 0.00 0.01 0.01 0.01 0.01 0.01 0.00 0.01 0.01 0.01 0.01 0.01 0.01 0.01 0.00 0.00 0.00 0.01 0.03 0.06 0.05 0.04 0.03 0.03 0.04 0.04 0.04 0.04 0.05 0.04 0.03 0.03 0.03 0.02 0.03 0.05 0.04 0.03 0.04 0.05 0.05 0.04 0.03
0.01 0.01 0.01 0.00 0.01 0.01 0.01 0.01 0.01 0.01 0.01 0.01 0.01 0.01 0.01 0.01 0.00 0.00 0.00 0.02 0.07 0.08 0.05 0.03 0.02 0.03 0.05 0.06 0.06 0.04 0.04 0.04 0.04 0.03 0.03 0.02 0.02 0.02 0.02 0.02 0.02 0.03 0.03 0.03
0.01 0.01 0.01 0.01 0.02 0.02 0.01 0.01 0.01 0.01 0.01 0.01 0.01 0.01 0.01 0.01 0.01 0.00 0.00 0.00 0.02 0.08 0.06 0.04 0.04 0.04 0.04 0.07 0.10 0.06 0.04 0.03 0.03 0.03 0.03 0.03 0.03 0.04 0.04 0.03 0.02 0.02 0.02 0.02
0.01 0.01 0.01 0.01 0.01 0.01 0.01 0.01 0.01 0.01 0.01 0.01 0.01 0.01 0.01 0.01 0.01 0.01 0.02 0.02 0.01 0.02 0.05 0.05 0.05 0.06 0.05 0.05 0.06 0.05 0.03 0.03 0.02 0.02 0.02 0.02 0.02 0.03 0.03 0.03 0.02 0.02 0.03 0.03
0.01 0.01 0.01 0.01 0.01 0.01 0.01 0.01 0.01 0.01 0.01 0.01 0.01 0.01 0.02 0.02 0.03 0.05 0.06 0.04 0.03 0.03 0.02 0.02 0.03 0.04 0.04 0.02 0.02 0.03 0.03 0.02 0.02 0.02 0.02 0.02 0.02 0.03 0.03 0.03 0.03 0.03 0.04 0.05
0.01 0.01 0.01 0.01 0.01 0.01 0.01 0.01 0.01 0.02 0.02 0.02 0.02 0.02 0.02 0.02 0.02 0.03 0.03 0.03 0.02 0.02 0.02 0.02 0.02 0.02 0.02 0.01 0.01 0.02 0.02 0.03 0.02 0.02 0.02 0.02 0.03 0.04 0.04 0.04 0.04 0.04 0.05 0.07
0.01 0.01 0.01 0.01 0.00 0.00 0.00 0.01 0.02 0.02 0.02 0.03 0.03 0.04 0.03 0.03 0.02 0.02 0.02 0.02 0.02 0.02 0.02 0.02 0.02 0.02 0.01 0.01 0.01 0.01 0.01 0.01 0.01 0.02 0.02 0.02 0.03 0.07 0.06 0.04 0.05 0.05 0.06 0.07
0.00 0.00 0.00 0.00 0.00 0.00 0.00 0.01 0.01 0.02 0.02 0.03 0.03 0.04 0.05 0.05 0.03 0.02 0.02 0.02 0.02 0.01 0.01 0.01 0.02 0.01 0.01 0.01 0.01 0.01 0.01 0.00 0.01 0.01 0.01 0.02 0.03 0.06 0.06 0.05 0.05 0.06 0.06 0.06
0.01 0.00 0.00 0.00 0.00 0.00 0.00 0.01 0.01 0.02 0.02 0.02 0.02 0.03 0.03 0.03 0.02 0.02 0.02 0.02 0.02 0.02 0.02 0.01 0.02 0.01 0.01 0.01 0.01 0.01 0.01 0.01 0.00 0.00 0.01 0.01 0.02 0.04 0.05 0.07 0.08 0.07 0.06 0.04
0.01 0.01 0.00 0.00 0.00 0.00 0.01 0.01 0.02 0.02 0.02 0.02 0.02 0.02 0.02 0.02 0.02 0.01 0.01 0.01 0.01 0.01 0.01 0.01 0.01 0.01 0.01 0.01 0.01 0.00 0.00 0.01 0.01 0.01 0.01 0.01 0.03 0.04 0.06 0.08 0.06 0.05 0.05 0.04
0.02 0.01 0.02 0.01 0.01 0.01 0.02 0.02 0.02 0.01 0.02 0.02 0.01 0.02 0.02 0.02 0.02 0.01 0.00 0.00 0.00 0.00 0.00 0.01 0.01 0.01 0.01 0.01 0.01 0.01 0.01 0.01 0.01 0.01 0.01 0.02 0.03 0.04 0.04 0.05 0.03 0.02 0.02 0.02
0.01 0.01 0.02 0.03 0.03 0.02 0.02 0.02 0.01 0.01 0.02 0.01 0.01 0.01 0.01 0.01 0.01 0.01 0.00 0.00 0.00 0.01 0.01 0.01 0.01 0.01 0.01 0.01 0.01 0.01 0.01 0.02 0.02 0.02 0.02 0.02 0.02 0.03 0.03 0.03 0.03 0.02 0.02 0.01
0.01 0.01 0.02 0.02 0.03 0.04 0.05 0.04 0.02 0.02 0.01 0.01 0.02 0.02 0.01 0.01 0.01 0.01 0.01 0.01 0.01 0.01 0.01 0.01 0.01 0.01 0.01 0.01 0.01 0.01 0.01 0.02 0.02 0.03 0.03 0.03 0.03 0.03 0.03 0.03 0.04 0.03 0.02 0.02
0.02 0.02 0.02 0.02 0.02 0.04 0.07 0.07 0.04 0.03 0.03 0.03 0.04 0.05 0.04 0.02 0.02 0.02 0.02 0.02 0.01 0.01 0.01 0.01 0.01 0.01 0.01 0.01 0.02 0.01 0.01 0.02 0.02 0.03 0.04 0.03 0.03 0.04 0.03 0.03 0.03 0.02 0.01 0.01
0.03 0.03 0.03 0.02 0.03 0.04 0.05 0.04 0.04 0.04 0.03 0.03 0.04 0.06 0.07 0.05 0.03 0.03 0.02 0.02 0.02 0.01 0.01 0.01 0.01 0.01 0.01 0.01 0.02 0.03 0.02 0.02 0.02 0.02 0.03 0.03 0.03 0.03 0.03 0.02 0.02 0.02 0.01 0.01
MSLP
1019.23 1019.63 1020.03 1020.45 1020.84 1021.18 1021.44 1021.60 1021.65 1021.59 1021.45 1021.28 1021.10 1020.97 1020.90 1020.91 1020.98 1021.08 1021.17 1021.21 1021.15 1020.99 1020.71 1020.34 1019.89 1019.40 1018.90 1018.42 1017.97 1017.55 1017.15 1016.76 1016.36 1015.95 1015.53 1015.11 1014.71 1014.35 1014.05 1013.81 1013.62 1013.48 1013.36 1013.24
1019.54 1019.83 1020.07 1020.27 1020.44 1020.56 1020.65 1020.68 1020.67 1020.64 1020.60 1020.56 1020.56 1020.60 1020.69 1020.82 1020.95 1021.07 1021.13 1021.12 1021.02 1020.81 1020.51 1020.15 1019.74 1019.32 1018.91 1018.51 1018.14 1017.79 1017.43 1017.07 1016.70 1016.31 1015.90 1015.51 1015.14 1014.82 1014.55 1014.34 1014.18 1014.05 1013.92 1013.77
1019.91 1020.06 1020.12 1020.12 1020.07 1019.99 1019.91 1019.83 1019.78 1019.77 1019.80 1019.89 1020.03 1020.22 1020.43 1020.64 1020.82 1020.95 1020.99 1020.94 1020.80 1020.57 1020.28 1019.94 1019.59 1019.25 1018.92 1018.62 1018.34 1018.05 1017.76 1017.45 1017.11 1016.75 1016.38 1016.02 1015.70 1015.42 1015.19 1015.01 1014.86 1014.73 1014.59 1014.41
1020.30 1020.29 1020.16 1019.96 1019.71 1019.46 1019.23 1019.07 1018.98 1018.98 1019.08 1019.26 1019.51 1019.80 1020.10 1020.38 1020.60 1020.73 1020.76 1020.70 1020.54 1020.31 1020.04 1019.75 1019.47 1019.21 1018.97 1018.76 1018.55 1018.34 1018.10 1017.84 1017.54 1017.23 1016.91 1016.60 1016.32 1016.09 1015.90 1015.75 1015.62 1015.48 1015.30 1015.08
1020.62 1020.43 1020.12 1019.73 1019.31 1018.92 1018.59 1018.35 1018.24 1018.26 1018.40 1018.66 1018.99 1019.36 1019.73 1020.05 1020.29 1020.44 1020.48 1020.41 1020.26 1020.06 1019.83 1019.60 1019.39 1019.21 1019.05 1018.92 1018.78 1018.63 1018.44 1018.22 1017.97 1017.70 1017.43 1017.18 1016.96 1016.77 1016.63 1016.50 1016.38 1016.23 1016.03 1015.75
1020.72 1020.36 1019.88 1019.35 1018.80 1018.31 1017.91 1017.64 1017.52 1017.57 1017.76 1018.08 1018.47 1018.90 1019.31 1019.67 1019.94 1020.10 1020.16 1020.12 1020.00 1019.84 1019.66 1019.50 1019.35 1019.24 1019.16 1019.08 1019.00 1018.89 1018.75 1018.58 1018.37 1018.14 1017.92 1017.72 1017.55 1017.42 1017.31 1017.22 1017.10 1016.95 1016.72 1016.41
1020.47 1019.96 1019.37 1018.73 1018.11 1017.57 1017.15 1016.89 1016.81 1016.89 1017.14 1017.50 1017.95 1018.42 1018.87 1019.26 1019.56 1019.75 1019.83 1019.83 1019.76 1019.65 1019.53 1019.43 1019.35 1019.30 1019.27 1019.24 1019.20 1019.12 1019.01 1018.87 1018.70 1018.52 1018.35 1018.20 1018.08 1017.99 1017.92 1017.85 1017.76 1017.60 1017.36 1017.03
1019.80 1019.19 1018.52 1017.84 1017.21 1016.69 1016.31 1016.10 1016.08 1016.23 1016.53 1016.95 1017.44 1017.95 1018.43 1018.84 1019.17 1019.39 1019.51 1019.55 1019.53 1019.48 1019.43 1019.38 1019.36 1019.35 1019.36 1019.36 1019.34 1019.30 1019.21 1019.10 1018.96 1018.82 1018.69 1018.59 1018.52 1018.47 1018.43 1018.39 1018.31 1018.16 1017.93 1017.59
1018.72 1018.07 1017.38 1016.73 1016.15 1015.70 1015.41 1015.29 1015.35 1015.58 1015.95 1016.42 1016.95 1017.49 1017.99 1018.43 1018.78 1019.03 1019.19 1019.28 1019.31 1019.31 1019.31 1019.31 1019.33 1019.36 1019.39 1019.42 1019.42 1019.39 1019.33 1019.25 1019.15 1019.05 1018.96 1018.89 1018.85 1018.83 1018.82 1018.79 1018.73 1018.60 1018.38 1018.07
1017.33 1016.69 1016.05 1015.48 1015.00 1014.68 1014.51 1014.52 1014.69 1015.00 1015.44 1015.95 1016.51 1017.06 1017.58 1018.02 1018.39 1018.67 1018.87 1018.99 1019.07 1019.12 1019.16 1019.20 1019.25 1019.30 1019.35 1019.39 1019.41 1019.40 1019.37 1019.32 1019.25 1019.18 1019.13 1019.09 1019.07 1019.07 1019.07 1019.05 1018.99 1018.88 1018.69 1018.41
1015.79 1015.21 1014.67 1014.22 1013.90 1013.73 1013.71 1013.84 1014.12 1014.52 1015.01 1015.56 1016.12 1016.68 1017.19 1017.64 1018.01 1018.31 1018.53 1018.68 1018.79 1018.88 1018.95 1019.01 1019.08 1019.14 1019.21 1019.26 1019.30 1019.32 1019.31 1019.30 1019.27 1019.23 1019.21 1019.19 1019.18 1019.18 1019.17 1019.14 1019.09 1018.98 1018.81 1018.58
1014.30 1013.81 1013.41 1013.11 1012.95 1012.94 1013.07 1013.33 1013.70 1014.16 1014.68 1015.24 1015.80 1016.34 1016.83 1017.26 1017.63 1017.92 1018.15 1018.33 1018.46 1018.56 1018.65 1018.73 1018.80 1018.88 1018.95 1019.02 1019.08 1019.12 1019.15 1019.17 1019.18 1019.19 1019.18 1019.18 1019.16 1019.14 1019.11 1019.06 1018.98 1018.87 1018.72 1018.53
1012.99 1012.62 1012.36 1012.23 1012.23 1012.36 1012.62 1012.98 1013.42 1013.92 1014.45 1014.99 1015.52 1016.02 1016.47 1016.88 1017.22 1017.51 1017.74 1017.92 1018.06 1018.18 1018.27 1018.35 1018.43 1018.50 1018.58 1018.66 1018.74 1018.82 1018.89 1018.95 1018.99 1019.03 1019.04 1019.04 1019.01 1018.97 1018.90 1018.81 1018.69 1018.56 1018.41 1018.25
1011.94 1011.70 1011.58 1011.59 1011.73 1011.99 1012.35 1012.77 1013.25 1013.75 1014.26 1014.76 1015.24 1015.69 1016.10 1016.46 1016.78 1017.05 1017.27 1017.45 1017.59 1017.70 1017.79 1017.87 1017.94 1018.01 1018.09 1018.18 1018.28 1018.39 1018.49 1018.59 1018.68 1018.74 1018.77 1018.77 1018.72 1018.64 1018.52 1018.38 1018.22 1018.05 1017.89 1017.74
1011.15 1011.02 1011.03 1011.16 1011.42 1011.77 1012.18 1012.64 1013.12 1013.60 1014.07 1014.51 1014.93 1015.31 1015.67 1015.99 1016.27 1016.52 1016.73 1016.90 1017.04 1017.15 1017.23 1017.29 1017.35 1017.41 1017.49 1017.58 1017.69 1017.82 1017.96 1018.10 1018.22 1018.31 1018.35 1018.34 1018.28 1018.16 1018.00 1017.80 1017.58 1017.37 1017.19 1017.04
1010.56 1010.53 1010.63 1010.86 1011.19 1011.60 1012.05 1012.51 1012.97 1013.41 1013.82 1014.19 1014.54 1014.86 1015.16 1015.44 1015.69 1015.92 1016.11 1016.27 1016.40 1016.49 1016.56 1016.61 1016.65 1016.69 1016.76 1016.85 1016.96 1017.11 1017.27 1017.43 1017.58 1017.69 1017.75 1017.75 1017.67 1017.52 1017.31 1017.06 1016.80 1016.55 1016.34 1016.19
1010.10 1010.14 1010.31 1010.61 1010.99 1011.42 1011.88 1012.32 1012.75 1013.13 1013.48 1013.79 1014.07 1014.34 1014.58 1014.82 1015.04 1015.24 1015.42 1015.57 1015.68 1015.75 1015.80 1015.82 1015.84 1015.86 1015.90 1015.98 1016.09 1016.23 1016.41 1016.59 1016.76 1016.89 1016.96 1016.96 1016.87 1016.71 1016.47 1016.19 1015.89 1015.61 1015.37 1015.21
1009.72 1009.80 1010.03 1010.36 1010.76 1011.20 1011.64 1012.06 1012.45 1012.78 1013.07 1013.32 1013.55 1013.75 1013.95 1014.15 1014.34 1014.51 1014.67 1014.79 1014.88 1014.93 1014.95 1014.94 1014.92 1014.91 1014.92 1014.98 1015.07 1015.21 1015.38 1015.56 1015.74 1015.88 1015.97 1015.97 1015.88 1015.71 1015.46 1015.17 1014.85 1014.55 1014.31 1014.15
1009.41 1009.53 1009.77 1010.12 1010.53 1010.96 1011.38 1011.77 1012.11 1012.40 1012.64 1012.84 1013.01 1013.17 1013.33 1013.48 1013.63 1013.77 1013.90 1013.99 1014.05 1014.06 1014.04 1013.99 1013.94 1013.88 1013.86 1013.87 1013.93 1014.05 1014.20 1014.37 1014.54 1014.68 1014.77 1014.78 1014.70 1014.53 1014.29 1013.99 1013.68 1013.38 1013.14 1012.99
1009.23 1009.37 1009.62 1009.97 1010.36 1010.78 1011.18 1011.53 1011.84 1012.08 1012.28 1012.43 1012.56 1012.67 1012.77 1012.88 1012.99 1013.08 1013.16 1013.21 1013.22 1013.19 1013.12 1013.03 1012.92 1012.82 1012.75 1012.71 1012.73 1012.81 1012.92 1013.06 1013.21 1013.34 1013.42 1013.43 1013.35 1013.19 1012.96 1012.68 1012.37 1012.09 1011.87 1011.73
1009.27 1009.40 1009.65 1009.98 1010.36 1010.75 1011.11 1011.43 1011.70 1011.91 1012.06 1012.17 1012.25 1012.31 1012.36 1012.41 1012.46 1012.50 1012.52 1012.51 1012.46 1012.38 1012.25 1012.11 1011.95 1011.79 1011.67 1011.58 1011.54 1011.56 1011.62 1011.72 1011.83 1011.92 1011.97 1011.97 1011.89 1011.73 1011.51 1011.24 1010.96 1010.70 1010.50 1010.39
1009.58 1009.70 1009.93 1010.24 1010.58 1010.93 1011.26 1011.54 1011.77 1011.94 1012.04 1012.11 1012.14 1012.14 1012.14 1012.12 1012.10 1012.07 1012.02 1011.94 1011.83 1011.69 1011.51 1011.30 1011.09 1010.87 1010.69 1010.54 1010.44 1010.39 1010.39 1010.42 1010.47 1010.50 1010.51 1010.47 1010.37 1010.21 1009.99 1009.74 1009.48 1009.24 1009.06 1008.98
1010.17 1010.28 1010.48 1010.75 1011.05 1011.35 1011.63 1011.87 1012.05 1012.17 1012.24 1012.25 1012.23 1012.17 1012.10 1012.02 1011.93 1011.83 1011.70 1011.55 1011.37 1011.16 1010.92 1010.66 1010.39 1010.12 1009.88 1009.66 1009.49 1009.37 1009.29 1009.24 1009.21 1009.17 1009.12 1009.03 1008.89 1008.71 1008.48 1008.23 1007.98 1007.76 1007.60 1007.52
1011.00 1011.08 1011.24 1011.46 1011.71 1011.95 1012.18 1012.36 1012.49 1012.56 1012.58 1012.54 1012.46 1012.36 1012.23 1012.08 1011.92 1011.75 1011.55 1011.34 1011.10 1010.83 1010.53 1010.22 1009.90 1009.57 1009.27 1008.99 1008.74 1008.54 1008.37 1008.23 1008.11 1007.98 1007.85 1007.70 1007.51 1007.29 1007.04 1006.78 1006.53 1006.31 1006.15 1006.08
1011.95 1012.00 1012.11 1012.27 1012.45 1012.63 1012.79 1012.91 1012.98 1013.00 1012.97 1012.89 1012.76 1012.61 1012.43 1012.23 1012.02 1011.79 1011.54 1011.27 1010.97 1010.65 1010.31 1009.95 1009.58 1009.21 1008.84 1008.50 1008.18 1007.89 1007.63 1007.40 1007.18 1006.97 1006.75 1006.52 1006.27 1006.00 1005.71 1005.43 1005.17 1004.94 1004.78 1004.71
1012.88 1012.89 1012.95 1013.04 1013.15 1013.25 1013.34 1013.39 1013.41 1013.38 1013.30 1013.18 1013.02 1012.83 1012.62 1012.38 1012.13 1011.86 1011.58 1011.27 1010.94 1010.58 1010.20 1009.80 1009.39 1008.97 1008.55 1008.14 1007.75 1007.38 1007.04 1006.71 1006.40 1006.09 1005.79 1005.48 1005.17 1004.85 1004.53 1004.22 1003.93 1003.69 1003.52 1003.43
1013.67 1013.64 1013.64 1013.66 1013.68 1013.71 1013.71 1013.70 1013.65 1013.57 1013.46 1013.31 1013.13 1012.93 1012.70 1012.45 1012.18 1011.90 1011.59 1011.26 1010.90 1010.52 1010.11 1009.67 1009.22 1008.75 1008.28 1007.82 1007.36 1006.92 1006.49 1006.08 1005.68 1005.29 1004.92 1004.54 1004.17 1003.81 1003.45 1003.12 1002.82 1002.56 1002.37 1002.27
Thickness
5745 5752 5752 5752 5752 5749 5744 5737 5729 5735 5736 5750 5757 5760 5762 5762 5762 5762 5760 5760 5759 5757 5756 5754 5753 5752 5751 5750 5748 5745 5742 5739 5738 5737 5735 5733 5731 5730 5728 5727 5726 5724 5723 5723
5736 5744 5745 5743 5747 5747 5745 5741 5737 5739 5739 5755 5757 5757 5756 5755 5755 5755 5755 5755 5755 5754 5752 5751 5749 5747 5746 5745 5743 5741 5737 5735 5733 5732 5730 5728 5726 5725 5724 5722 5721 5720 5719 5718
5716 5727 5733 5723 5736 5739 5738 5739 5737 5732 5741 5749 5748 5750 5751 5751 5750 5750 5751 5750 5750 5749 5748 5747 5745 5743 5740 5740 5738 5736 5734 5731 5728 5726 5725 5723 5722 5720 5718 5717 5716 5714 5714 5713
5700 5712 5702 5724 5743 5742 5736 5735 5737 5738 5742 5744 5745 5747 5749 5749 5747 5746 5745 5745 5744 5743 5742 5741 5738 5737 5736 5733 5731 5730 5728 5726 5724 5722 5719 5718 5715 5714 5712 5711 5709 5708 5707 5707
5686 5690 5700 5721 5734 5733 5727 5725 5734 5733 5737 5739 5740 5740 5739 5743 5742 5741 5740 5739 5739 5738 5736 5733 5731 5730 5729 5726 5725 5722 5721 5719 5718 5716 5714 5712 5709 5707 5706 5704 5703 5702 5701 5700
5680 5686 5685 5710 5732 5737 5728 5714 5730 5730 5729 5729 5731 5720 5726 5736 5735 5735 5734 5732 5731 5730 5727 5725 5724 5723 5721 5719 5718 5716 5715 5713 5712 5711 5708 5705 5704 5702 5700 5698 5697 5696 5694 5694
5674 5678 5689 5713 5725 5728 5704 5707 5726 5726 5724 5723 5720 5721 5725 5728 5727 5726 5725 5725 5723 5721 5719 5718 5717 5716 5713 5712 5711 5710 5709 5706 5704 5703 5701 5699 5698 5696 5694 5692 5689 5688 5687 5686
5664 5669 5682 5712 5714 5707 5707 5717 5720 5720 5719 5718 5717 5719 5719 5720 5719 5718 5717 5716 5714 5712 5711 5710 5709 5708 5706 5704 5704 5703 5701 5699 5697 5695 5694 5693 5691 5689 5687 5683 5681 5679 5679 5678
5670 5678 5693 5701 5705 5710 5710 5710 5712 5713 5714 5714 5711 5710 5711 5710 5710 5709 5709 5707 5706 5704 5703 5702 5701 5700 5698 5697 5696 5695 5694 5692 5690 5689 5687 5686 5684 5681 5678 5676 5674 5672 5671 5670
5669 5680 5689 5694 5698 5703 5705 5706 5707 5709 5708 5707 5704 5703 5702 5701 5700 5700 5699 5698 5697 5695 5694 5693 5692 5691 5690 5689 5689 5687 5686 5684 5683 5680 5679 5677 5676 5674 5671 5669 5667 5665 5664 5664
5663 5673 5680 5687 5690 5694 5698 5700 5701 5701 5701 5699 5698 5696 5694 5692 5691 5691 5690 5689 5687 5685 5684 5683 5683 5682 5682 5681 5680 5679 5678 5677 5675 5673 5672 5669 5667 5665 5664 5663 5661 5659 5659 5658
5658 5668 5669 5675 5683 5687 5688 5689 5690 5690 5690 5691 5690 5688 5686 5684 5683 5683 5681 5680 5678 5677 5676 5674 5674 5673 5674 5673 5672 5671 5670 5668 5667 5665 5664 5662 5660 5657 5655 5655 5654 5653 5652 5651
5663 5668 5668 5673 5676 5680 5680 5681 5682 5682 5682 5681 5681 5680 5678 5676 5675 5673 5672 5672 5670 5669 5668 5667 5665 5665 5665 5665 5664 5663 5661 5660 5659 5657 5656 5654 5652 5650 5648 5646 5645 5644 5643 5643
5661 5662 5662 5666 5668 5671 5673 5674 5674 5674 5674 5673 5672 5672 5670 5668 5667 5665 5664 5664 5663 5661 5659 5658 5657 5656 5656 5657 5657 5655 5654 5653 5652 5649 5648 5647 5646 5644 5641 5639 5638 5637 5635 5634
5655 5657 5657 5660 5661 5663 5665 5665 5663 5663 5663 5663 5663 5662 5661 5659 5658 5657 5656 5656 5654 5652 5650 5650 5648 5648 5649 5649 5648 5648 5647 5645 5644 5642 5641 5640 5638 5636 5634 5632 5630 5629 5627 5626
5648 5649 5650 5651 5653 5654 5656 5656 5654 5654 5654 5654 5654 5653 5653 5652 5650 5649 5648 5647 5645 5643 5642 5641 5640 5641 5642 5641 5641 5640 5639 5639 5638 5635 5634 5632 5631 5629 5627 5625 5623 5621 5620 5619
5638 5639 5641 5642 5644 5645 5646 5647 5647 5647 5647 5646 5646 5646 5645 5644 5642 5640 5639 5639 5637 5636 5635 5634 5633 5634 5634 5633 5633 5632 5631 5630 5630 5628 5625 5624 5623 5621 5619 5617 5615 5614 5612 5611
5637 5638 5639 5639 5638 5638 5639 5640 5640 5639 5639 5639 5639 5638 5637 5636 5634 5633 5632 5630 5629 5628 5628 5627 5626 5626 5626 5626 5625 5624 5623 5622 5621 5619 5617 5616 5615 5613 5612 5611 5610 5608 5606 5604
5632 5633 5634 5635 5634 5634 5634 5633 5633 5633 5633 5632 5631 5631 5630 5629 5627 5625 5624 5622 5620 5619 5620 5620 5619 5619 5618 5618 5617 5617 5616 5616 5614 5613 5611 5609 5608 5607 5606 5605 5603 5602 5600 5597
5626 5627 5628 5629 5629 5629 5628 5628 5627 5626 5626 5626 5625 5624 5623 5622 5620 5618 5616 5614 5614 5614 5613 5612 5612 5612 5611 5611 5611 5610 5610 5609 5607 5606 5604 5602 5601 5600 5599 5597 5596 5594 5592 5591
5619 5620 5621 5622 5623 5623 5623 5623 5622 5621 5621 5620 5619 5618 5617 5615 5614 5611 5609 5608 5609 5608 5607 5606 5606 5606 5605 5605 5604 5603 5602 5601 5600 5599 5598 5596 5595 5593 5592 5591 5589 5588 5586 5585
5612 5613 5614 5615 5616 5616 5617 5617 5616 5616 5615 5614 5614 5613 5610 5608 5607 5606 5605 5604 5604 5603 5601 5600 5600 5600 5600 5600 5598 5598 5596 5596 5594 5593 5591 5590 5589 5588 5587 5585 5584 5582 5581 5579
5606 5607 5609 5609 5610 5610 5611 5611 5611 5611 5610 5609 5608 5607 5605 5604 5602 5600 5600 5600 5600 5598 5597 5596 5596 5595 5595 5594 5593 5592 5591 5590 5589 5587 5586 5585 5583 5582 5581 5580 5579 5577 5575 5574
5602 5603 5604 5605 5605 5604 5604 5605 5606 5606 5605 5604 5604 5603 5601 5599 5597 5597 5596 5596 5595 5593 5592 5591 5591 5590 5589 5588 5587 5586 5586 5584 5583 5582 5581 5580 5578 5577 5576 5574 5572 5571 5570 5568
5598 5598 5599 5599 5599 5599 5600 5600 5600 5600 5599 5599 5598 5598 5597 5596 5594 5593 5592 5591 5589 5588 5587 5586 5586 5585 5584 5582 5581 5580 5579 5578 5577 5576 5575 5574 5572 5571 5570 5568 5567 5565 5564 5563
5594 5594 5595 5596 5596 5596 5596 5596 5595 5594 5594 5593 5594 5594 5593 5592 5590 5588 5587 5586 5585 5583 5582 5582 5581 5579 5578 5577 5576 5574 5573 5572 5571 5570 5569 5567 5566 5565 5564 5563 5561 5560 5558 5557
5590 5591 5591 5591 5592 5592 5592 5591 5591 5590 5590 5590 5589 5589 5588 5587 5585 5583 5582 5581 5580 5579 5579 5578 5577 5575 5573 5572 5571 5569 5568 5567 5566 5565 5563 5561 5560 5559 5558 5557 5555 5553 5551 5550